This demonstration page uses our WeatherBlox Daily Observations layout. Learn more.

Left ArrowRight Arrow

Hourly Observations for May 26, 2021

Temp ( °F °C ) Dew Point ( °F °C ) Humidity (%) Winds ( mph kmh ) Pressure ( in mb ) Visibility ( mi km ) Precip ( " mm )
12:53 am 00:53 Clear 76 24.4 64 17.8 67 67 SE 12 19 29.85 1011 10 16 0.00 0.00
1:53 am 01:53 Clear 74 23.3 64 17.8 71 71 SE 14 22 29.84 1011 10 16 0.00 0.00
2:53 am 02:53 Clear 74 23.3 65 18.3 74 74 SE 16 26 29.83 1010 10 16 0.00 0.00
3:53 am 03:53 Clear 72 22.2 65 18.3 79 79 ESE 14 22 29.85 1011 10 16 0.00 0.00
4:53 am 04:53 Clear 72 22.2 65 18.3 79 79 SE 18 30 29.85 1011 10 16 0.00 0.00
5:53 am 05:53 Clear 71 21.7 66 18.9 84 84 SE 17 28 29.87 1012 10 16 0.00 0.00
6:53 am 06:53 Sunny 71 21.7 66 18.9 84 84 SE 17 28 29.89 1012 10 16 0.00 0.00
7:53 am 07:53 Sunny 73 22.8 67 19.4 81 81 SSE 18 30 29.91 1013 10 16 0.00 0.00
8:53 am 08:53 Sunny 77 25 66 18.9 69 69 SSE 22 35 29.93 1014 10 16 0.00 0.00
9:53 am 09:53 Sunny 81 27.2 66 18.9 61 61 SSE 22 35 29.93 1014 10 16 0.00 0.00
10:53 am 10:53 Sunny 84 28.9 64 17.8 51 51 SE 21 33 29.93 1014 10 16 0.00 0.00
11:53 am 11:53 Sunny 87 30.6 63 17.2 45 45 SE 18 30 29.92 1013 10 16 0.00 0.00
12:53 pm 12:53 Sunny 90 32.2 60 15.6 37 37 SE 16 26 29.90 1013 10 16 0.00 0.00
1:53 pm 13:53 Sunny 94 34.4 61 16.1 33 33 SE 17 28 29.88 1012 10 16 0.00 0.00
2:53 pm 14:53 Sunny 95 35 59 15 30 30 SE 22 35 29.85 1011 10 16 0.00 0.00
3:53 pm 15:53 Sunny 98 36.7 56 13.3 24 24 SE 14 22 29.81 1010 10 16 0.00 0.00
4:53 pm 16:53 Sunny 97 36.1 53 11.7 23 23 SE 21 33 29.78 1008 10 16 0.00 0.00
5:34 pm 17:34 Sunny with Nearby Thunderstorms 94 34.4 55 12.8 27 27 SE 23 37 29.67 1005 10 16 0.00 0.00
5:49 pm 17:49 Sunny 95 35 55 13 26 26 SSE 20 31 29.66 1004 10 16 0.00 0.00
5:53 pm 17:53 Sunny 96 35.6 56 13.3 26 26 SSE 23 37 29.77 1008 10 16 0.00 0.00
6:00 pm 18:00 Sunny with Nearby Thunderstorms 96 35.6 56 13.3 26 26 SE 25 41 29.66 1004 10 16 0.00 0.00
6:41 pm 18:41 Sunny 85 29.4 56 13.3 37 37 S 22 35 29.73 1007 8 13 0.00 0.00
6:53 pm 18:53 Sunny 86 30 54 12.2 33 33 SSE 21 33 29.79 1009 10 16 0.00 0.00
7:53 pm 19:53 Sunny 88 31.1 60 15.6 39 39 SSE 26 43 29.78 1009 10 16 0.00 0.00
8:53 pm 20:53 Clear 84 28.9 65 18.3 53 53 SSE 29 46 29.78 1009 10 16 0.00 0.00
9:53 pm 21:53 Mostly Clear 81 27.2 65 18.3 58 58 SE 25 41 29.79 1009 10 16 0.00 0.00
10:21 pm 22:21 Clear with Nearby Thunderstorms 80 26.7 66 18.9 62 62 SSE 24 39 29.75 1008 10 16 0.00 0.00
10:42 pm 22:42 Mostly Clear with Thunderstorms 80 26.7 66 18.9 62 62 undefined N/A 29.76 1008 10 16 0.00 0.00
10:53 pm 22:53 Mostly Clear with Nearby Thunderstorms 79 26.1 67 19.4 67 67 SSE 28 44 29.80 1009 10 16 0.00 0.00
11:15 pm 23:15 Mostly Cloudy with Thunderstorms 78 25.6 68 20 71 71 S 8 13 29.84 1011 3 4 0.00 0.00
11:27 pm 23:27 Mostly Cloudy with Thunderstorms 76 24.4 69 20.6 79 79 ESE 16 26 29.84 1010 5 8 0.03 0.76
11:44 pm 23:44 Mostly Clear with Nearby Thunderstorms 77 25 69 20.6 77 77 ESE 16 26 29.82 1010 10 16 0.03 0.76
11:53 pm 23:53 Mostly Clear 77 25 68 20 74 74 SE 16 26 29.83 1010 10 16 0.03 0.76

Powered by AerisWeather